Simultaneous Nadir Overpasses (SNOs) Predictions

Prediction of SNOs between NOAA-19 and NPP Satellite Orbit:

Table of predicted SNOs for the next 14.0 days since TLE Epoch: 10/19/2012
Index Date (NOAA-19) Time (NOAA-19) NOAA-19 Lat,Lon Date (NPP) Time (NPP) NPP Lat,Lon Distance(km) Time Diff (sec)
1 10/21/2012 18:36:28 80.80,-149.11 10/21/2012 18:37:36 80.79,-149.05 1.10 68
2 10/21/2012 19:27:33 -80.76, 18.93 10/21/2012 19:28:19 -80.75, 18.96 0.72 46
3 10/21/2012 20:18:31 80.76,-173.92 10/21/2012 20:19:04 80.76,-173.75 3.18 33
4 10/21/2012 21:09:37 -80.74, -6.24 10/21/2012 21:09:48 -80.74, -6.08 2.78 11
5 10/21/2012 22:00:31 80.67, 162.31 10/21/2012 22:00:30 80.67, 162.24 1.30 1
6 10/21/2012 22:51:36 -80.63, -29.68 10/21/2012 22:51:13 -80.63, -29.77 1.64 23
7 10/21/2012 23:42:33
